Location: Elm Mott Branch
(32.1549°N, 97.5139°W)
Time: 11:06:08
(UTC+00:00)

USA 234 - Pass Details

Date: 18 November 2025
Orbit: 1100 x 1107 km, 123.0° (Epoch: 02 December)

Event Time Altitude Azimuth Distance (km) Brightness Sun altitude
Rises 12:22:14 0° 121° (ESE) 3,917 8.1 -8.8°
Reaches altitude 10° 12:24:46 10° 116° (ESE) 2,961 7.2 -8.2°
Maximum altitude 12:31:04 52° 42° (NE) 1,342 3.9 -7.0°
Drops below altitude 10° 12:37:22 10° 328° (NNW) 2,967 5.1 -5.7°
Sets 12:39:55 0° 324° (NW) 3,926 5.6 -5.2°
